Back to catalog

VEERY-0G

AliveScienceSSO
NORAD 66675·PAYLOAD·🇺🇸 United States

Launched Nov 28, 2025 from Vandenberg Space Force Base

Loading…

Next Passes (next 24 hours)

TLE

FreshSource: Space-Track

Epoch: Sep 14, 2026, 03:38 UTC

1 66675U 25276K   26257.15199440  .00006758  00000-0  29740-3 0  9998
2 66675  97.4098 329.3860 0006840  62.6720 297.5212 15.22160329 43951

Track VEERY-0G in real time with AllMySat

Download on the App Store